TimeCST,TemperatureF,Dew PointF,Humidity,Sea Level PressureIn,VisibilityMPH,Wind Direction,Wind SpeedMPH,Gust SpeedMPH,PrecipitationIn,Events,Conditions,WindDirDegrees,DateUTC
12:13 AM,-2.2,-7.6,78,30.04,3.0,NNW,25.3,34.5,N/A,,Haze,340,2013-02-19 06:13:00
12:33 AM,-2.2,-7.6,78,30.05,2.5,NNW,25.3,34.5,N/A,,Haze,340,2013-02-19 06:33:00
12:53 AM,-2.2,-7.6,78,30.06,2.5,NNW,23.0,29.9,N/A,,Haze,340,2013-02-19 06:53:00
1:13 AM,-2.2,-7.6,78,30.07,2.5,NNW,21.9,31.1,N/A,,Haze,340,2013-02-19 07:13:00
1:33 AM,-2.2,-7.6,78,30.08,2.0,NNW,27.6,34.5,N/A,,Haze,340,2013-02-19 07:33:00
1:53 AM,-2.2,-7.6,78,30.09,2.0,NNW,26.5,33.4,N/A,,Haze,340,2013-02-19 07:53:00
2:13 AM,-2.2,-9.4,71,30.09,1.8,NNW,27.6,38.0,N/A,,Haze,340,2013-02-19 08:13:00
2:33 AM,-4.0,-9.4,78,30.09,1.8,NNW,26.5,32.2,N/A,,Haze,340,2013-02-19 08:33:00
2:53 AM,-4.0,-9.4,78,30.10,1.5,NNW,25.3,35.7,N/A,,Haze,340,2013-02-19 08:53:00
3:13 AM,-5.8,-11.2,77,30.11,-9999.0,NNW,26.5,36.8,N/A,,Overcast,340,2013-02-19 09:13:00
3:33 AM,-5.8,-11.2,77,30.11,-9999.0,NNW,26.5,34.5,N/A,,Overcast,340,2013-02-19 09:33:00
3:53 AM,-7.6,-13.0,77,30.11,-9999.0,NNW,29.9,39.1,N/A,,Mostly Cloudy,330,2013-02-19 09:53:00
4:13 AM,-7.6,-14.8,71,30.12,-9999.0,NNW,25.3,38.0,N/A,,Mostly Cloudy,340,2013-02-19 10:13:00
4:33 AM,-9.4,-14.8,77,30.12,-9999.0,NNW,27.6,34.5,N/A,,Mostly Cloudy,340,2013-02-19 10:33:00
4:53 AM,-9.4,-14.8,77,30.13,-9999.0,NNW,26.5,33.4,N/A,,Overcast,340,2013-02-19 10:53:00
5:13 AM,-9.4,-14.8,77,30.15,-9999.0,NNW,25.3,34.5,N/A,,Overcast,340,2013-02-19 11:13:00
5:33 AM,-9.4,-14.8,77,30.16,-9999.0,NNW,19.6,26.5,N/A,,Overcast,330,2013-02-19 11:33:00
5:53 AM,-9.4,-14.8,77,30.16,-9999.0,NNW,21.9,33.4,N/A,,Overcast,330,2013-02-19 11:53:00
6:13 AM,-9.4,-16.6,71,30.17,-9999.0,NNW,25.3,34.5,N/A,,Overcast,340,2013-02-19 12:13:00
6:33 AM,-9.4,-16.6,71,30.18,-9999.0,NNW,26.5,34.5,N/A,,Overcast,330,2013-02-19 12:33:00
6:53 AM,-9.4,-16.6,71,30.19,-9999.0,NNW,24.2,32.2,N/A,,Overcast,340,2013-02-19 12:53:00
7:13 AM,-11.2,-16.6,77,30.20,-9999.0,NNW,24.2,32.2,N/A,,Overcast,340,2013-02-19 13:13:00
7:33 AM,-11.2,-16.6,77,30.22,-9999.0,NNW,23.0,34.5,N/A,,Overcast,340,2013-02-19 13:33:00
7:53 AM,-11.2,-18.4,70,30.22,-9999.0,NNW,21.9,31.1,N/A,,Overcast,340,2013-02-19 13:53:00
8:13 AM,-11.2,-18.4,70,30.23,-9999.0,NNW,23.0,31.1,N/A,,Overcast,340,2013-02-19 14:13:00
8:33 AM,-11.2,-18.4,70,30.23,-9999.0,NNW,25.3,29.9,N/A,,Overcast,340,2013-02-19 14:33:00
8:53 AM,-11.2,-18.4,70,30.24,-9999.0,NNW,25.3,32.2,N/A,,Overcast,340,2013-02-19 14:53:00
9:13 AM,-11.2,-18.4,70,30.25,-9999.0,NNW,21.9,31.1,N/A,,Overcast,340,2013-02-19 15:13:00
9:33 AM,-11.2,-18.4,70,30.25,1.0,NNW,25.3,34.5,N/A,,Haze,340,2013-02-19 15:33:00
9:53 AM,-11.2,-18.4,70,30.27,1.0,NNW,21.9,27.6,N/A,,Haze,340,2013-02-19 15:53:00
10:13 AM,-11.2,-18.4,70,30.28,1.5,NNW,25.3,31.1,N/A,,Haze,340,2013-02-19 16:13:00
10:33 AM,-9.4,-18.4,65,30.28,1.2,NNW,25.3,32.2,N/A,,Haze,340,2013-02-19 16:33:00
10:53 AM,-9.4,-18.4,65,30.28,1.0,NNW,24.2,32.2,N/A,,Haze,340,2013-02-19 16:53:00
11:13 AM,-9.4,-16.6,71,30.29,1.5,NNW,23.0,34.5,N/A,,Haze,330,2013-02-19 17:13:00
11:33 AM,-9.4,-18.4,65,30.30,2.0,NNW,28.8,35.7,N/A,,Haze,340,2013-02-19 17:33:00
11:53 AM,-9.4,-18.4,65,30.30,5.0,NNW,27.6,34.5,N/A,,Haze,340,2013-02-19 17:53:00
12:13 PM,-9.4,-16.6,71,30.30,1.5,NNW,25.3,38.0,N/A,,Haze,340,2013-02-19 18:13:00
12:33 PM,-9.4,-16.6,71,30.30,2.0,NNW,24.2,32.2,N/A,,Haze,340,2013-02-19 18:33:00
12:53 PM,-9.4,-16.6,71,30.30,7.0,North,25.3,29.9,N/A,,Clear,350,2013-02-19 18:53:00
1:13 PM,-9.4,-16.6,71,30.30,5.0,North,25.3,34.5,N/A,,Haze,350,2013-02-19 19:13:00
1:33 PM,-7.6,-16.6,65,30.31,2.5,North,21.9,33.4,N/A,,Haze,350,2013-02-19 19:33:00
1:53 PM,-7.6,-16.6,65,30.31,7.0,North,24.2,32.2,N/A,,Clear,350,2013-02-19 19:53:00
2:13 PM,-7.6,-16.6,65,30.31,5.0,NNW,19.6,28.8,N/A,,Haze,340,2013-02-19 20:13:00
2:33 PM,-7.6,-16.6,65,30.31,7.0,NNW,19.6,28.8,N/A,,Clear,340,2013-02-19 20:33:00
2:53 PM,-7.6,-16.6,65,30.32,7.0,North,18.4,26.5,N/A,,Clear,350,2013-02-19 20:53:00
3:13 PM,-7.6,-16.6,65,30.33,10.0,North,11.5,24.2,N/A,,Clear,350,2013-02-19 21:13:00
3:33 PM,-7.6,-14.8,71,30.34,10.0,NNW,15.0,20.7,N/A,,Clear,340,2013-02-19 21:33:00
3:53 PM,-7.6,-14.8,71,30.35,10.0,North,13.8,18.4,N/A,,Clear,350,2013-02-19 21:53:00
4:13 PM,-7.6,-14.8,71,30.36,10.0,NNW,17.3,24.2,N/A,,Clear,340,2013-02-19 22:13:00
4:33 PM,-7.6,-14.8,71,30.36,10.0,NNW,17.3,-,N/A,,Clear,330,2013-02-19 22:33:00
4:53 PM,-7.6,-14.8,71,30.36,10.0,NNW,15.0,-,N/A,,Clear,330,2013-02-19 22:53:00
5:13 PM,-7.6,-16.6,65,30.37,10.0,NNW,13.8,19.6,N/A,,Clear,340,2013-02-19 23:13:00
5:33 PM,-9.4,-16.6,71,30.38,10.0,NNW,12.7,19.6,N/A,,Clear,330,2013-02-19 23:33:00
6:33 PM,-11.2,-16.6,77,30.40,10.0,North,8.1,-,N/A,,Clear,350,2013-02-20 00:33:00
6:53 PM,-11.2,-18.4,70,30.39,10.0,North,6.9,-,N/A,,Clear,10,2013-02-20 00:53:00
7:13 PM,-11.2,-18.4,70,30.39,10.0,NNE,6.9,-,N/A,,Clear,20,2013-02-20 01:13:00
7:53 PM,-11.2,-18.4,70,30.39,10.0,NNE,4.6,-,N/A,,Clear,30,2013-02-20 01:53:00
8:13 PM,-11.2,-18.4,70,30.39,10.0,NE,6.9,-,N/A,,Clear,50,2013-02-20 02:13:00
8:33 PM,-13.0,-20.2,70,30.41,10.0,NNW,6.9,-,N/A,,Clear,330,2013-02-20 02:33:00
8:53 PM,-13.0,-18.4,77,30.42,10.0,NNW,9.2,-,N/A,,Clear,340,2013-02-20 02:53:00
9:13 PM,-14.8,-20.2,77,30.42,10.0,North,5.8,-,N/A,,Clear,350,2013-02-20 03:13:00
9:33 PM,-14.8,-22.0,70,30.43,10.0,NW,9.2,-,N/A,,Clear,310,2013-02-20 03:33:00
9:53 PM,-16.6,-22.0,76,30.43,10.0,North,9.2,-,N/A,,Clear,350,2013-02-20 03:53:00
10:13 PM,-14.8,-20.2,77,30.43,10.0,NNW,5.8,-,N/A,,Clear,340,2013-02-20 04:13:00
10:33 PM,-14.8,-20.2,77,30.43,10.0,North,5.8,-,N/A,,Clear,350,2013-02-20 04:33:00
10:53 PM,-16.6,-22.0,76,30.44,10.0,NNW,5.8,-,N/A,,Clear,340,2013-02-20 04:53:00
11:13 PM,-18.4,-25.6,70,30.45,10.0,NNW,5.8,-,N/A,,Clear,330,2013-02-20 05:13:00
11:33 PM,-16.6,-23.8,70,30.44,10.0,Calm,Calm,-,N/A,,Clear,0,2013-02-20 05:33:00
11:53 PM,-16.6,-22.0,76,30.44,10.0,Calm,Calm,-,N/A,,Clear,0,2013-02-20 05:53:00